Showing default

AISSAT 2, 40075

Orbit data source: Space-Track

AISSAT 2, 40075 is a payload satellite owned by NSC (NO) in SSO that was launched on Tue, 08 Jul 2014 UTC via a SOYUZ-2-1B launch vehicle from the Tyuratam Missile And Space Complex (TTMTR). Payload-class satellites include a variety of spacecraft equipped with specific instruments for various scientific and technological missions. These include communications satellites like Starlink; space stations such as the ISS; scientific satellites like the Hubble; Earth observation satellites from companies like Planet Labs, Umbra, and HawkEye 360; GPS; miniature CubeSats for education and research; and military/defense satellites.

Loading next visibility...
Identifier
40075, 2014-037G
Orbit
SSO
Last TLE update
18 hours ago
Origin
Manufacturer
UTIAS-SFL
Mission
Non-operational Civil Communications
Bus & Motor
GNB, Unknown motor
Mass
7 kg wet, 7 kg dry
Launch date (UTC)
2014-07-08 (11 years ago)
Launch vehicle
SOYUZ-2-1B
Launch site
Tyuratam Missile And Space Complex (TTMTR)
Object type
Payload
Rocket body
Debris
Shape & HBR
Box + 2 Ant, 1 m
Radar Cross Section
0.093 m², Medium (>0.1 m² and < 1m²)

Expand to show TLE details & history

TLE from 18 hours ago
0 AISSAT 2
1 40075U 14037G   25183.39904248  .00001796  00000-0  18689-3 0  9997
2 40075  98.3577 129.0817 0004312 340.1997  19.9051 14.91234578594577
Epoch: 2025-07-02T09:34Z
TLE epoch observation values (Epoch: 2025-07-02T09:34:37.27Z)
Latitude
-0.00007°
Longitude
64.74571°
Altitude
594.28 km
Speed
7.564 km/s
True Right ascension
08h 36m 19s
True Declination
0° 00' 00"
Sunlit
Object was in daylight at epoch
Visualization orbit readout
Latitude
35.43446°
Longitude
59.56638°
Altitude
597.286 km
Speed
7.565 km/s
Apparent Right ascension
05h 57m 14s
Apparent Declination
0° 19' 26"
Sunlit
Object is in daylight
Visualization observer readout
Local Sidereal Time
15:12:13
Azimuth
305.944° NW
Elevation
-35.468°
Doppler factor
1
Orbital elements
Apogee altitude
594.137 km
Perigee altitude
588.127 km
Semi-major axis
6,969.269 km
Eccentricity
0.00043
Inclination
98.3577°
RAAN
129.0817°
Arg. of periapsis
340.1997°
True anomaly
Unknown
Mean anomaly
19.9051°
Eccentric anomaly
Unknown
Mean motion
3.73046 °/min
Orbital period
96.5 mins
BSTAR
0.00018689
Loading maneuver chart data...
Loading SW <> Apogee altitude chart data...
Loading historical data...
Loading historical data...
Loading historical data...
Loading historical data...
Loading historical data...
Loading historical data...
Loading historical data...

AISSAT 2 Visibility forecast

Observer location: undefined°, undefined°

Span
Click to sort rows by Start time (UTC) header in descending order
Start Az.
Max El. time (UTC)
Max El. Az.
Max El.
End time (UTC)
End Az.
6 mins2025-07-03 08:42:02.504Z38.542° NE2025-07-03 08:45:02.504Z95.134° ESE28.048°2025-07-03 08:48:02.504Z155.612° SSE
4 mins2025-07-03 10:19:02.504Z319.721° NNW2025-07-03 10:20:02.504Z301.41° NW18.841°2025-07-03 10:23:02.504Z250.58° W
5 mins2025-07-03 19:33:02.504Z110.346° ESE2025-07-03 19:35:02.504Z74.246° E21.664°2025-07-03 19:38:02.504Z20.373° NNE
5 mins2025-07-03 21:09:02.504Z225.974° WSW2025-07-03 21:11:02.504Z271.278° WNW24.082°2025-07-03 21:14:02.504Z320.036° NNW
|